Stündliche Wetter Dabkowice

Heute, 28 Oktober, Mittwoch

Zeit Temperatur Niederschläge Wind Luftdruck Luftfeuchtigkeit
00:00 +8°C° 0 mm 7 m/S 756 mmHg 77%
01:00 +8°C° 0 mm 7 m/S 757 mmHg 77%
02:00 +8°C° 0 mm 7 m/S 756 mmHg 77%
03:00 +8°C° 0 mm 7 m/S 756 mmHg 76%
04:00 +8°C° 0 mm 7 m/S 756 mmHg 75%
05:00 +7°C° 0 mm 8 m/S 756 mmHg 75%
06:00 +7°C° 0 mm 8 m/S 756 mmHg 75%
07:00 +7°C° 0 mm 8 m/S 756 mmHg 74%
08:00 +7°C° 0 mm 8 m/S 756 mmHg 73%
09:00 +7°C° 0 mm 8 m/S 756 mmHg 72%
10:00 +8°C° 0 mm 9 m/S 756 mmHg 71%
11:00 +9°C° 0.1 mm 8 m/S 756 mmHg 73%
12:00 +9°C° 0.1 mm 8 m/S 756 mmHg 76%
13:00 +9°C° 0.1 mm 7 m/S 756 mmHg 78%
14:00 +9°C° 0.2 mm 7 m/S 756 mmHg 81%
15:00 +9°C° 0.2 mm 7 m/S 756 mmHg 84%
16:00 +8°C° 0.2 mm 7 m/S 756 mmHg 87%
17:00 +9°C° 0.1 mm 7 m/S 756 mmHg 86%
18:00 +9°C° 0.1 mm 7 m/S 756 mmHg 86%
19:00 +9°C° 0.1 mm 7 m/S 756 mmHg 86%
20:00 +9°C° 0.1 mm 7 m/S 756 mmHg 86%
21:00 +9°C° 0.1 mm 7 m/S 757 mmHg 86%
22:00 +9°C° 0.1 mm 7 m/S 757 mmHg 86%
23:00 +9°C° 0 mm 7 m/S 757 mmHg 87%

Morgen, 29 Oktober, Donnerstag

Zeit Temperatur Niederschläge Wind Luftdruck Luftfeuchtigkeit
00:00 +8°C° 0 mm 6 m/S 757 mmHg 89%
01:00 +8°C° 0 mm 6 m/S 757 mmHg 90%
02:00 +7°C° 0 mm 6 m/S 757 mmHg 90%
03:00 +7°C° 0 mm 6 m/S 757 mmHg 90%
04:00 +7°C° 0 mm 6 m/S 756 mmHg 90%
05:00 +7°C° 0 mm 6 m/S 756 mmHg 88%
06:00 +6°C° 0 mm 7 m/S 756 mmHg 86%
07:00 +6°C° 0 mm 7 m/S 756 mmHg 85%
08:00 +8°C° 0.2 mm 7 m/S 756 mmHg 85%
09:00 +8°C° 0.2 mm 7 m/S 756 mmHg 85%
10:00 +9°C° 0.2 mm 7 m/S 756 mmHg 85%
11:00 +10°C° 0.2 mm 8 m/S 756 mmHg 80%
12:00 +10°C° 0.2 mm 8 m/S 756 mmHg 75%
13:00 +11°C° 0.2 mm 9 m/S 756 mmHg 71%
14:00 +10°C° 0.3 mm 8 m/S 757 mmHg 74%
15:00 +9°C° 0.3 mm 8 m/S 757 mmHg 76%
16:00 +9°C° 0.3 mm 7 m/S 757 mmHg 79%
17:00 +9°C° 0.2 mm 7 m/S 758 mmHg 80%
18:00 +8°C° 0.2 mm 7 m/S 759 mmHg 81%
19:00 +8°C° 0.2 mm 7 m/S 759 mmHg 82%
20:00 +8°C° 0.1 mm 7 m/S 759 mmHg 83%
21:00 +8°C° 0.1 mm 7 m/S 760 mmHg 84%
22:00 +8°C° 0.1 mm 6 m/S 760 mmHg 86%
23:00 +7°C° 0.1 mm 6 m/S 760 mmHg 87%

übermorgen, 30 Oktober, Freitag

Zeit Temperatur Niederschläge Wind Luftdruck Luftfeuchtigkeit
00:00 +7°C° 0.1 mm 6 m/S 761 mmHg 88%
01:00 +7°C° 0.1 mm 6 m/S 761 mmHg 90%
02:00 +7°C° 0.1 mm 6 m/S 761 mmHg 90%
03:00 +7°C° 0.1 mm 6 m/S 761 mmHg 91%
04:00 +5°C° 0.1 mm 6 m/S 761 mmHg 91%
05:00 +5°C° 0 mm 6 m/S 761 mmHg 91%
06:00 +6°C° 0 mm 5 m/S 761 mmHg 90%
07:00 +5°C° 0 mm 5 m/S 761 mmHg 89%
08:00 +6°C° 0.3 mm 5 m/S 761 mmHg 89%
09:00 +6°C° 0.3 mm 5 m/S 761 mmHg 89%
10:00 +6°C° 0.3 mm 5 m/S 760 mmHg 89%
11:00 +7°C° 1 mm 5 m/S 760 mmHg 90%
12:00 +7°C° 1 mm 4 m/S 760 mmHg 91%
13:00 +7°C° 1 mm 4 m/S 760 mmHg 93%
14:00 +7°C° 1.1 mm 4 m/S 760 mmHg 93%
15:00 +7°C° 1.1 mm 4 m/S 760 mmHg 94%
16:00 +8°C° 1.1 mm 3 m/S 760 mmHg 95%
17:00 +8°C° 0.1 mm 3 m/S 760 mmHg 95%
18:00 +8°C° 0.1 mm 3 m/S 761 mmHg 95%
19:00 +9°C° 0.1 mm 2 m/S 761 mmHg 95%
20:00 +8°C° 0 mm 2 m/S 762 mmHg 95%
21:00 +8°C° 0 mm 2 m/S 762 mmHg 95%
22:00 +8°C° 0 mm 3 m/S 763 mmHg 94%
23:00 +8°C° 0 mm 3 m/S 763 mmHg 94%

31 Oktober, Samstag

Zeit Temperatur Niederschläge Wind Luftdruck Luftfeuchtigkeit
00:00 +8°C° 0 mm 3 m/S 764 mmHg 94%
01:00 +8°C° 0 mm 3 m/S 764 mmHg 94%
02:00 +8°C° 0 mm 3 m/S 764 mmHg 94%
03:00 +8°C° 0 mm 3 m/S 765 mmHg 93%
04:00 +9°C° 0 mm 3 m/S 765 mmHg 92%
05:00 +7°C° 0 mm 4 m/S 765 mmHg 93%
06:00 +7°C° 0 mm 4 m/S 766 mmHg 93%
07:00 +7°C° 0 mm 4 m/S 766 mmHg 94%
08:00 +8°C° 0 mm 4 m/S 766 mmHg 92%
09:00 +10°C° 0 mm 4 m/S 767 mmHg 90%
10:00 +10°C° 0 mm 4 m/S 767 mmHg 88%
11:00 +11°C° 0 mm 4 m/S 767 mmHg 88%
12:00 +11°C° 0 mm 4 m/S 767 mmHg 87%
13:00 +11°C° 0 mm 4 m/S 767 mmHg 87%
14:00 +11°C° 0 mm 4 m/S 767 mmHg 88%
15:00 +10°C° 0 mm 5 m/S 767 mmHg 88%
16:00 +10°C° 0 mm 5 m/S 767 mmHg 89%
17:00 +9°C° 0 mm 5 m/S 767 mmHg 90%
18:00 +9°C° 0 mm 5 m/S 767 mmHg 92%
19:00 +9°C° 0 mm 5 m/S 767 mmHg 93%
20:00 +9°C° 0 mm 5 m/S 767 mmHg 93%
21:00 +9°C° 0 mm 5 m/S 766 mmHg 93%
22:00 +9°C° 0 mm 6 m/S 766 mmHg 94%
23:00 +9°C° 0 mm 6 m/S 766 mmHg 93%

1 November, Sonntag

Zeit Temperatur Niederschläge Wind Luftdruck Luftfeuchtigkeit
00:00 +9°C° 0 mm 6 m/S 766 mmHg 93%
01:00 +9°C° 0 mm 6 m/S 766 mmHg 93%
02:00 +9°C° 0 mm 7 m/S 765 mmHg 91%
03:00 +9°C° 0 mm 7 m/S 765 mmHg 90%
04:00 +7°C° 0 mm 8 m/S 764 mmHg 88%
05:00 +7°C° 0 mm 8 m/S 764 mmHg 85%
06:00 +7°C° 0 mm 8 m/S 764 mmHg 81%
07:00 +7°C° 0 mm 8 m/S 764 mmHg 78%
08:00 +9°C° 0 mm 8 m/S 763 mmHg 77%
09:00 +10°C° 0 mm 8 m/S 763 mmHg 76%
10:00 +10°C° 0 mm 8 m/S 763 mmHg 75%
11:00 +11°C° 0 mm 8 m/S 762 mmHg 75%
12:00 +12°C° 0 mm 8 m/S 762 mmHg 74%
13:00 +13°C° 0 mm 8 m/S 761 mmHg 74%
14:00 +12°C° 0 mm 8 m/S 761 mmHg 76%
15:00 +12°C° 0 mm 8 m/S 761 mmHg 78%
16:00 +12°C° 0 mm 8 m/S 761 mmHg 80%
17:00 +12°C° 0 mm 8 m/S 761 mmHg 81%
18:00 +12°C° 0 mm 8 m/S 760 mmHg 82%
19:00 +12°C° 0 mm 8 m/S 760 mmHg 83%
20:00 +12°C° 0 mm 8 m/S 760 mmHg 83%
21:00 +12°C° 0 mm 8 m/S 760 mmHg 82%
22:00 +13°C° 0 mm 8 m/S 760 mmHg 81%
23:00 +12°C° 0 mm 8 m/S 760 mmHg 81%

2 November, Montag

Zeit Temperatur Niederschläge Wind Luftdruck Luftfeuchtigkeit
00:00 +12°C° 0 mm 8 m/S 760 mmHg 80%
01:00 +12°C° 0 mm 8 m/S 759 mmHg 80%
02:00 +12°C° 0 mm 8 m/S 759 mmHg 79%
03:00 +12°C° 0 mm 8 m/S 759 mmHg 79%
04:00 +12°C° 0 mm 8 m/S 759 mmHg 78%
05:00 +12°C° 0 mm 8 m/S 759 mmHg 79%
06:00 +12°C° 0 mm 7 m/S 759 mmHg 79%
07:00 +12°C° 0 mm 7 m/S 759 mmHg 80%
08:00 +14°C° 0 mm 7 m/S 759 mmHg 78%
09:00 +15°C° 0 mm 7 m/S 759 mmHg 77%
10:00 +15°C° 0 mm 7 m/S 759 mmHg 75%
11:00 +16°C° 0 mm 7 m/S 760 mmHg 74%
12:00 +16°C° 0 mm 7 m/S 760 mmHg 73%
13:00 +16°C° 0 mm 7 m/S 760 mmHg 72%
14:00 +16°C° 0 mm 7 m/S 760 mmHg 74%
15:00 +16°C° 0 mm 6 m/S 760 mmHg 77%
16:00 +15°C° 0 mm 6 m/S 760 mmHg 79%
17:00 +15°C° 0 mm 6 m/S 760 mmHg 80%
18:00 +15°C° 0 mm 6 m/S 761 mmHg 80%
19:00 +15°C° 0 mm 6 m/S 761 mmHg 81%
20:00 +15°C° 0 mm 6 m/S 761 mmHg 81%
21:00 +15°C° 0 mm 7 m/S 761 mmHg 80%
22:00 +15°C° 0 mm 7 m/S 761 mmHg 80%
23:00 +14°C° 0 mm 7 m/S 761 mmHg 79%
Mehr zeigen

Wir brauchen deine Erlaubnis

Meteoprog und unser Service Anbieter werden persönliche Daten aufbewahren, so wie Cookies, Geräte Bezeichnung oder ähnliche Technologien von deinem Gerät und Prozess, so wie Persönliche Daten Inhalte und Werbungen, genauso wie social Media und den Verkehr zu analysieren.

  • Aufbewahrung und/oder Zugang zu deiner Geräte Informationen.

    Cookies, Geräte Bezeichnung oder andere Informationen, können aufbewahrt oder Zugang zu deinem Gerät erhalten, für den Grund, der oben angegeben wird.

  • Personalisierte Werbung und Inhalte, Messungen, Einblick in das Publikum und Produkt Entwicklung.

    Werbungen und Inhalte können personalisiert werden, basierend auf ein Profil. Mehr Daten können besser personalisierte Werbungen und Inhalte hinzufügen. Werbung und Inhalte können gezeigt und gemessen werden. Einblicke über das Publikum, welche die Werbung gesehen haben und den Inhalt, können abgeleitet werden. So wie Daten können genutzt werden, um es zu verbessern oder die Benutzer Erfahrung zu verbessern das System und die Software.

Wenn du “Ich stimme zu” klickst, erlaubst du uns, die Cookies zu benutzen die Geräte Bezeichnung, den Web oder ähnliche Technologien zu benutzen. Deine Settings, können in deinem Gerät bei deinem Browser geändert werden.

Für den bestimmten Zweck, berechtigten Interessen beruhen darauf, mehr als auf den Inhalt. Du kannst mehr darüber in unseren Privaten und Cookie Politik lesen.